Lapse_Rate
6.2 6.1 6.1 6.1 6.1 6.1 6.1 6.1 6.0 5.9 5.9 5.9 6.0 6.1 6.2 6.1 6.1 6.0 6.1 6.2 6.2 6.2 6.1 5.9 5.9 5.8 5.7 5.7 5.6 5.6 5.6 5.4 5.3 5.2 5.1 5.1 5.0 4.9 4.7 4.6 4.5 4.4 4.4
6.2 6.1 6.0 6.0 6.0 6.0 6.0 6.0 5.9 5.9 5.9 6.0 6.1 6.2 6.2 6.1 6.1 6.0 6.1 6.2 6.2 6.1 6.0 5.9 5.8 5.7 5.7 5.7 5.7 5.6 5.5 5.5 5.4 5.3 5.2 5.1 5.0 4.9 4.8 4.6 4.5 4.4 4.4
6.1 6.0 5.9 5.9 6.0 6.0 6.0 5.9 5.9 5.9 5.9 6.0 6.1 6.2 6.2 6.2 6.2 6.2 6.3 6.2 6.1 6.0 5.9 5.8 5.8 5.8 5.8 5.8 5.8 5.7 5.7 5.6 5.5 5.4 5.3 5.1 5.0 4.9 4.8 4.6 4.5 4.5 4.4
6.0 5.9 5.9 5.8 5.8 5.8 5.8 5.8 5.8 5.9 5.9 5.9 6.0 6.1 6.2 6.3 6.3 6.3 6.3 6.3 6.1 6.0 5.9 5.9 5.9 5.9 5.9 5.9 5.8 5.7 5.7 5.7 5.5 5.5 5.3 5.1 5.1 5.0 4.8 4.8 4.6 4.6 4.6
5.9 5.8 5.7 5.7 5.6 5.6 5.6 5.6 5.7 5.8 5.9 5.9 5.9 6.1 6.2 6.3 6.3 6.4 6.4 6.3 6.1 6.0 5.9 6.0 6.0 6.0 5.9 5.9 5.9 5.7 5.7 5.7 5.5 5.4 5.3 5.2 5.1 5.0 4.9 4.9 4.7 4.7 4.7
5.9 5.7 5.6 5.5 5.4 5.4 5.4 5.5 5.6 5.7 5.8 5.9 6.0 6.2 6.2 6.3 6.4 6.4 6.3 6.2 6.1 6.0 6.0 6.0 6.1 6.1 6.0 5.9 5.8 5.7 5.6 5.6 5.4 5.4 5.3 5.2 5.2 5.1 5.0 4.9 4.8 4.7 4.7
5.9 5.7 5.5 5.5 5.4 5.3 5.4 5.5 5.6 5.7 5.8 6.0 6.1 6.2 6.3 6.4 6.4 6.4 6.4 6.3 6.2 6.1 6.1 6.1 6.2 6.0 6.0 5.9 5.8 5.7 5.6 5.6 5.5 5.4 5.3 5.2 5.2 5.1 4.9 4.9 4.8 4.7 4.7
6.0 5.8 5.7 5.6 5.6 5.6 5.7 5.7 5.8 5.9 6.0 6.1 6.1 6.2 6.3 6.4 6.5 6.5 6.5 6.4 6.3 6.3 6.3 6.2 6.1 6.1 6.1 5.9 5.8 5.7 5.7 5.6 5.4 5.3 5.3 5.3 5.3 5.2 5.0 4.9 4.8 4.8 4.9
6.1 5.9 5.9 6.0 6.0 6.0 5.9 6.0 6.0 6.0 6.1 6.2 6.3 6.3 6.4 6.5 6.6 6.6 6.6 6.4 6.4 6.4 6.4 6.3 6.3 6.2 6.2 6.0 5.8 5.7 5.7 5.5 5.4 5.4 5.4 5.3 5.3 5.2 5.0 5.0 4.9 4.9 4.9
6.4 6.2 6.1 6.1 6.1 6.1 6.1 6.0 6.1 6.2 6.3 6.4 6.3 6.3 6.5 6.6 6.5 6.6 6.6 6.6 6.5 6.5 6.4 6.4 6.3 6.2 6.0 5.9 5.8 5.6 5.5 5.4 5.5 5.5 5.4 5.3 5.3 5.2 5.2 5.1 5.0 4.9 4.8
6.6 6.5 6.3 6.2 6.3 6.2 6.2 6.3 6.3 6.3 6.3 6.4 6.4 6.5 6.5 6.5 6.6 6.7 6.7 6.7 6.6 6.5 6.4 6.3 6.2 6.2 6.1 5.9 5.8 5.6 5.5 5.5 5.6 5.5 5.4 5.2 5.1 5.2 5.3 5.1 5.0 5.0 4.9
6.6 6.6 6.5 6.4 6.3 6.4 6.4 6.4 6.4 6.4 6.3 6.4 6.5 6.5 6.5 6.6 6.5 6.5 6.6 6.6 6.6 6.5 6.4 6.4 6.3 6.2 6.0 5.9 5.8 5.7 5.6 5.5 5.6 5.5 5.4 5.2 5.2 5.3 5.3 5.2 5.1 5.0 4.9
6.9 6.7 6.5 6.4 6.4 6.3 6.3 6.3 6.4 6.3 6.2 6.3 6.3 6.4 6.5 6.5 6.5 6.4 6.4 6.4 6.4 6.4 6.4 6.3 6.2 6.2 6.1 5.9 5.7 5.7 5.7 5.6 5.5 5.4 5.3 5.2 5.3 5.4 5.3 5.2 5.1 5.0 5.0
6.8 6.7 6.7 6.5 6.4 6.4 6.4 6.4 6.5 6.5 6.4 6.5 6.5 6.6 6.6 6.6 6.6 6.5 6.5 6.4 6.4 6.4 6.3 6.2 6.3 6.3 6.2 6.0 5.8 5.8 5.8 5.7 5.6 5.4 5.3 5.2 5.4 5.4 5.2 5.2 5.2 5.1 5.0
6.8 6.8 6.9 6.9 6.6 6.6 6.6 6.5 6.6 6.6 6.6 6.6 6.6 6.6 6.7 6.6 6.7 6.5 6.5 6.4 6.4 6.3 6.3 6.2 6.3 6.2 6.1 6.0 6.0 5.9 5.8 5.6 5.6 5.4 5.3 5.3 5.3 5.3 5.3 5.4 5.3 5.2 5.2
6.9 6.8 6.8 6.9 6.8 6.7 6.7 6.6 6.7 6.7 6.7 6.7 6.7 6.7 6.8 6.7 6.7 6.7 6.6 6.5 6.4 6.3 6.5 6.4 6.3 6.3 6.3 6.0 6.0 5.9 5.7 5.6 5.6 5.5 5.3 5.3 5.4 5.4 5.4 5.4 5.4 5.3 5.3
7.1 7.0 7.0 6.8 6.7 6.6 6.5 6.6 6.7 6.7 6.7 6.7 6.8 6.7 6.8 6.7 6.7 6.7 6.6 6.5 6.4 6.3 6.4 6.3 6.4 6.4 6.4 6.2 6.0 6.0 5.7 5.7 5.5 5.6 5.4 5.3 5.4 5.5 5.5 5.6 5.5 5.4 5.4
6.9 7.0 7.0 6.9 6.7 6.6 6.7 6.6 6.7 6.8 6.8 6.8 6.8 6.8 6.8 6.7 6.7 6.5 6.5 6.5 6.4 6.3 6.4 6.4 6.2 6.3 6.2 6.2 6.0 6.0 5.7 5.6 5.5 5.5 5.5 5.4 5.4 5.4 5.5 5.6 5.5 5.4 5.4
6.7 6.8 7.0 7.1 7.1 6.9 6.7 6.6 6.6 6.7 6.7 6.7 6.8 6.7 6.8 6.7 6.6 6.7 6.6 6.5 6.4 6.4 6.3 6.4 6.3 6.1 6.1 6.2 6.1 6.0 5.6 5.5 5.5 5.5 5.5 5.5 5.5 5.4 5.6 5.7 5.6 5.5 5.3
6.5 6.5 6.5 6.8 7.0 7.2 6.9 6.6 6.5 6.6 6.7 6.7 6.6 6.7 6.7 6.7 6.7 6.7 6.6 6.6 6.5 6.4 6.3 6.3 6.3 6.2 6.1 6.2 6.1 6.0 5.6 5.4 5.5 5.6 5.6 5.5 5.5 5.4 5.7 5.7 5.7 5.6 5.4
6.2 6.5 6.5 6.5 6.6 6.8 7.0 7.1 6.9 6.9 6.9 6.8 6.7 6.6 6.7 6.7 6.7 6.5 6.5 6.6 6.6 6.5 6.4 6.2 6.2 6.2 6.2 6.2 6.1 5.7 5.6 5.5 5.4 5.6 5.7 5.7 5.6 5.6 5.7 5.8 5.7 5.5 5.5
6.0 6.1 6.3 6.5 6.5 6.5 6.7 6.8 6.8 6.8 6.9 6.8 6.8 6.7 6.6 6.4 6.4 6.5 6.5 6.6 6.5 6.4 6.2 6.2 6.2 6.2 6.3 6.1 5.8 5.7 5.8 5.5 5.6 5.7 5.8 5.9 5.7 5.7 5.7 5.9 5.8 5.6 5.5
5.8 5.7 5.9 6.1 6.4 6.5 6.4 6.4 6.4 6.5 6.6 6.7 6.7 6.7 6.8 6.7 6.7 6.5 6.4 6.5 6.3 6.3 6.2 6.1 6.1 6.2 6.1 6.2 5.6 5.9 6.0 5.6 5.7 5.8 5.9 6.0 5.8 5.8 5.8 5.9 5.8 5.6 5.6
5.4 5.5 5.5 5.6 5.7 6.1 6.3 6.4 6.2 6.2 6.4 6.5 6.4 6.4 6.5 6.7 6.6 6.6 6.5 6.4 6.3 6.4 6.3 6.3 6.3 6.3 6.2 5.9 5.8 6.0 5.9 5.9 5.9 5.9 5.9 5.8 5.9 5.8 5.8 6.0 5.8 5.6 5.5
5.2 5.4 5.5 5.4 5.5 5.6 5.8 6.1 6.3 6.3 6.3 6.4 6.4 6.4 6.3 6.3 6.4 6.4 6.5 6.5 6.5 6.5 6.5 6.8 6.6 6.5 6.3 5.9 5.9 6.0 6.1 5.9 5.9 6.0 5.8 5.7 5.9 5.9 5.9 5.9 5.7 5.7 5.5
5.2 5.3 5.4 5.4 5.4 5.4 5.6 5.8 6.1 6.2 6.2 6.4 6.5 6.7 6.8 6.6 6.5 6.5 6.6 6.5 6.4 6.6 6.9 6.9 6.7 6.6 6.3 6.1 6.0 6.0 6.0 6.1 6.0 5.7 5.9 5.7 5.8 5.8 5.8 5.9 5.8 5.8 5.7
Wind_Speed
5 6 9 10 11 7 8 4 3 2 4 4 2 4 5 4 6 6 10 10 7 5 5 4 3 1 1 1 2 2 3 3 4 5 6 7 8 9 10 8 9 9 8
9 7 7 8 6 8 4 5 2 2 3 4 5 5 6 6 6 7 8 10 8 6 6 5 4 2 1 1 2 3 4 5 5 6 7 8 9 9 10 10 11 12 11
12 10 7 6 8 8 6 3 3 3 3 4 4 6 7 8 6 5 8 8 9 7 4 5 4 2 1 1 2 3 4 5 6 6 8 9 9 10 11 12 13 13 12
16 11 6 6 9 8 6 2 2 2 2 2 3 4 2 3 4 7 7 7 7 6 5 5 5 3 1 1 2 3 4 5 6 7 8 9 9 10 10 11 11 12 12
19 11 8 8 10 8 5 3 2 2 2 2 3 2 2 2 4 6 5 6 6 6 6 6 4 3 2 1 2 3 4 4 5 7 7 7 8 9 9 10 10 11 11
19 14 9 8 9 4 3 2 4 3 3 3 3 3 2 2 4 4 4 6 7 7 7 6 4 4 5 4 2 3 4 4 6 6 6 7 8 9 10 10 11 11 12
19 15 10 9 9 5 6 5 3 4 2 2 1 2 2 3 3 4 5 5 6 8 8 6 7 5 6 6 5 2 3 5 6 6 6 7 8 9 10 10 10 11 12
19 15 11 5 7 4 6 5 4 2 2 3 3 1 1 3 2 4 3 4 6 8 7 7 7 8 7 7 9 6 4 4 5 5 6 7 8 9 9 10 11 11 11
19 17 16 10 6 5 5 5 5 6 4 2 6 3 2 4 1 1 5 4 5 4 6 5 8 7 9 8 9 8 4 2 3 4 5 6 7 8 9 10 11 11 11
15 18 17 14 9 5 6 6 5 4 4 4 1 4 2 3 3 1 2 4 4 5 6 5 7 8 9 10 9 7 5 1 2 3 5 6 7 8 9 9 10 11 11
14 16 16 13 8 5 6 7 6 6 4 4 4 1 3 1 1 2 3 3 2 4 5 5 9 9 10 11 9 9 6 2 2 2 4 6 7 8 9 9 9 10 11
6 10 14 13 12 6 8 8 7 8 7 5 4 4 4 3 3 3 2 3 3 4 4 4 5 10 12 12 11 11 7 3 4 4 4 6 6 8 8 9 9 10 11
4 10 10 9 8 10 9 7 8 8 7 6 7 6 4 4 3 3 3 2 3 3 2 3 5 12 13 14 12 10 7 6 6 8 7 6 5 7 8 9 9 11 11
9 8 10 9 11 11 10 9 5 7 7 7 9 6 5 5 4 4 4 4 2 2 2 5 3 9 14 17 14 12 10 8 8 9 8 6 4 6 8 9 9 10 10
8 8 11 12 12 12 12 11 9 10 7 9 9 8 7 5 5 5 4 4 4 3 3 4 4 6 12 16 16 14 12 9 9 10 11 8 6 7 9 8 7 8 9
10 10 12 12 12 12 12 11 10 9 11 7 8 9 9 6 6 5 5 4 4 5 3 4 5 4 10 11 17 14 12 10 10 10 10 10 9 8 8 6 6 9 10
10 11 12 13 13 13 13 13 14 12 14 12 11 11 13 9 8 6 5 4 5 4 6 3 3 5 6 6 6 12 12 11 10 9 10 11 11 8 6 6 8 9 9
10 12 11 12 14 14 14 15 16 15 15 15 14 13 13 8 12 9 8 11 9 8 7 11 3 4 6 6 5 5 8 12 10 10 11 13 11 10 9 9 10 8 4
14 13 14 13 14 14 14 14 16 15 15 17 15 15 15 13 13 11 12 11 10 8 8 4 5 4 4 2 3 3 4 6 9 11 8 8 8 12 9 9 10 7 5
14 13 14 16 14 14 14 14 15 15 16 15 15 15 16 16 18 15 13 15 11 10 7 8 4 4 3 4 2 3 4 3 4 6 9 10 9 6 5 9 10 10 5
12 13 13 14 15 13 12 15 15 16 16 16 15 15 16 19 25 20 12 15 14 11 8 9 8 4 4 4 6 4 4 3 3 4 2 3 4 4 8 6 8 7 5
10 9 11 14 15 12 19 21 18 15 16 17 16 16 17 20 21 27 27 24 20 16 15 10 11 9 14 9 5 5 4 4 3 4 4 3 5 3 6 6 7 5 7
8 9 11 11 13 15 20 22 24 17 16 17 18 16 14 14 18 16 24 27 23 26 22 16 15 14 10 13 8 6 5 4 4 3 3 3 2 3 6 8 6 7 8
7 8 10 11 11 11 17 22 24 19 18 19 18 18 18 17 16 17 16 17 19 19 20 15 17 15 14 11 13 11 9 5 2 2 3 3 1 3 2 5 7 6 5
9 6 8 10 10 13 15 19 18 17 18 19 17 18 19 19 21 24 19 18 18 18 19 29 23 17 17 17 14 8 5 4 3 3 4 4 3 2 1 1 2 8 5
12 9 8 8 13 13 16 17 16 12 16 13 15 18 23 22 22 23 21 18 19 17 16 13 14 15 18 16 23 15 10 7 4 1 5 6 4 3 2 2 1 1 2
Wind_Direction
192 203 203 196 206 207 216 217 248 298 312 307 268 246 255 235 227 193 191 195 191 198 198 203 205 212 247 300 339 345 354 347 345 341 336 332 332 332 329 330 319 317 313
210 204 201 200 205 206 208 220 228 239 279 303 304 270 253 243 221 196 193 196 198 205 203 206 205 214 273 321 327 339 349 344 342 341 337 333 328 327 326 322 322 329 319
212 209 201 197 202 204 194 211 273 297 289 301 281 289 277 242 211 188 178 192 199 206 201 202 206 195 246 324 331 347 344 341 342 342 340 339 334 334 332 328 329 326 319
213 210 193 197 202 180 185 191 242 266 271 289 294 289 303 203 183 154 151 160 170 193 194 193 192 190 224 313 336 347 343 343 346 349 348 345 341 338 334 331 327 322 321
212 193 192 197 190 180 180 197 230 197 238 286 280 296 292 171 160 151 151 158 167 164 182 188 178 175 187 164 15 8 10 2 1 6 6 360 355 351 343 340 338 333 329
203 195 193 205 190 177 194 200 213 227 208 226 291 313 283 223 159 172 189 174 175 174 178 182 177 194 195 193 111 70 35 31 29 20 6 358 355 351 346 347 344 340 340
199 191 195 202 193 185 197 196 195 211 276 214 46 337 310 258 217 208 201 189 192 199 205 200 204 198 189 196 174 111 78 38 23 10 356 352 351 346 346 346 342 341 343
196 190 188 198 195 183 201 203 184 185 236 193 158 111 250 323 308 237 215 206 206 205 218 222 196 191 181 177 181 164 122 39 7 0 355 352 348 348 345 342 342 340 342
198 194 195 193 198 190 200 199 187 183 205 263 216 159 111 225 192 242 234 223 198 209 221 205 204 180 172 165 168 168 143 28 354 355 355 350 347 348 343 344 343 339 335
200 198 197 197 198 191 202 204 198 188 156 213 272 227 223 157 178 290 287 248 220 211 217 220 214 190 178 169 179 181 179 239 349 348 348 344 346 341 342 345 342 337 335
206 202 199 198 202 198 204 198 194 199 190 177 193 176 218 268 199 148 226 262 292 239 227 211 201 192 187 175 174 185 194 238 312 304 329 336 335 335 341 343 341 337 335
213 210 203 203 205 203 204 208 205 197 201 202 194 206 184 175 199 182 214 238 220 253 221 211 198 199 189 184 191 201 205 245 277 258 285 316 325 329 334 336 336 335 334
209 215 203 206 210 213 210 202 204 202 200 203 203 216 212 210 166 173 152 220 235 263 253 225 210 201 189 191 196 204 216 249 251 243 254 297 313 320 327 326 331 331 327
219 210 207 208 211 207 210 206 206 210 197 206 207 210 211 219 197 182 175 157 274 281 252 229 217 206 194 195 201 211 221 234 254 231 247 257 290 308 314 319 324 323 321
219 207 208 212 212 211 210 208 214 214 201 206 213 207 214 219 213 209 189 174 164 230 265 243 198 205 195 196 203 205 214 233 233 233 250 239 258 290 309 303 309 311 317
219 211 209 213 214 214 213 208 216 214 207 210 209 202 213 216 215 209 205 199 189 172 239 217 233 201 194 201 207 210 219 233 221 247 248 235 243 279 298 288 296 306 311
217 221 215 215 214 216 213 212 219 215 214 217 216 208 218 200 215 210 202 199 204 173 224 281 237 213 190 194 206 213 213 214 237 241 244 228 229 259 262 259 287 295 297
221 223 219 217 218 218 215 216 218 216 215 217 216 213 218 202 215 207 205 215 213 201 205 231 229 220 204 209 208 195 208 221 225 242 240 231 240 240 239 255 280 277 269
228 226 224 219 220 219 216 218 222 222 221 222 216 211 215 200 212 209 209 213 213 210 210 186 223 212 209 182 199 215 205 224 235 240 223 235 254 234 233 263 274 216 205
226 227 225 227 223 219 217 219 220 224 227 228 226 218 214 205 214 208 207 212 206 205 196 213 198 204 191 212 177 185 231 215 228 231 238 254 240 207 269 278 270 181 217
228 228 225 226 228 220 218 218 220 223 228 231 227 223 221 218 216 210 204 211 203 204 200 210 218 187 197 191 198 184 196 184 245 215 226 225 199 242 287 266 187 194 248
246 227 226 226 225 226 226 220 219 225 227 229 232 230 228 223 222 218 213 212 203 198 204 204 214 216 219 208 165 176 159 165 238 196 172 243 188 240 249 220 219 253 274
267 252 241 227 230 231 229 225 220 229 230 229 230 232 231 230 220 220 222 220 211 211 208 204 213 212 211 202 165 175 176 174 196 192 138 240 192 221 227 216 257 271 260
276 262 255 244 238 235 228 228 225 228 234 234 231 230 230 228 221 212 217 220 220 215 212 214 215 218 214 178 189 190 180 161 84 170 140 212 221 231 217 253 271 242 173
298 268 255 256 242 249 234 228 225 236 238 238 235 232 232 233 226 208 213 219 222 223 216 220 217 214 194 183 169 136 162 135 223 226 194 152 210 227 228 233 100 111 88
300 293 281 262 255 255 247 234 224 238 244 242 240 240 233 233 227 213 216 221 228 221 213 210 215 207 198 193 178 189 166 176 145 164 207 171 164 166 287 238 221 195 75